User: anonymous   Login
Location: Unspecified
(0.0000°N, 0.0000°E)
Time: 17:02:41
(UTC+00:00)
Language:

Explorer 7 - Orbit

View from above orbital plane
View from above orbital plane
View from above satellite
View from above satellite

Ground track
Ground track

The orbit data is extracted from the following two-line orbital elements,

1    22U 59009A   17083.92791313 +.00000469 +00000-0 +59367-4 0  9994
2    22 050.2835 236.9563 0142395 071.8081 289.8309 14.94035892293808
Epoch (UTC): 24 March 2017 22:16:11
Eccentricity: 0.0142395
inclination: 50.2835°
perigee height: 486 km
apogee height: 684 km
right ascension of ascending node: 236.9563°
argument of perigee: 71.8081°
revolutions per day: 14.94035892
mean anomaly at epoch: 289.8309°
orbit number at epoch: 29380

The dashed part of the orbit path shows where the satellite is in the earth's shadow,  

DLR